Time,TemperatureF,DewpointF,PressureIn,WindDirection,WindDirectionDegrees,WindSpeedMPH,WindSpeedGustMPH,Humidity,HourlyPrecipIn,Conditions,Clouds,dailyrainin,SoftwareType,DateUTC
2013-02-04 00:00:00,33.7,23.2,29.90,West,267,10.0,16.0,65,0.00,,OVC070,0.00,VWS V14.01,2013-02-04 05:00:00,
2013-02-04 00:01:00,33.7,23.2,29.90,NW,317,14.0,16.0,65,0.00,,BKN070,0.00,VWS V14.01,2013-02-04 05:01:00,
2013-02-04 00:02:00,33.7,23.6,29.90,NW,307,17.0,19.0,66,0.00,,BKN070,0.00,VWS V14.01,2013-02-04 05:02:00,
2013-02-04 00:03:00,33.6,23.5,29.90,NW,307,12.0,18.0,66,0.00,,BKN070,0.00,VWS V14.01,2013-02-04 05:03:00,
2013-02-04 00:08:00,33.5,22.6,29.91,WNW,299,15.0,19.0,64,0.00,,BKN070,0.00,VWS V14.01,2013-02-04 05:08:00,
2013-02-04 00:13:00,33.4,22.5,29.91,NW,307,15.0,17.0,64,0.00,,BKN070,0.00,VWS V14.01,2013-02-04 05:13:00,
2013-02-04 00:18:00,33.3,21.3,29.92,NNW,342,7.0,16.0,61,0.00,,BKN070,0.00,VWS V14.01,2013-02-04 05:18:00,
2013-02-04 00:23:00,33.3,21.7,29.92,NW,321,12.0,19.0,62,0.00,,BKN070,0.00,VWS V14.01,2013-02-04 05:23:00,
2013-02-04 00:28:00,33.3,21.7,29.92,NW,317,9.0,19.0,62,0.00,,BKN070,0.00,VWS V14.01,2013-02-04 05:28:00,
2013-02-04 00:33:00,33.1,21.1,29.92,West,276,20.0,20.0,61,0.00,,BKN070,0.00,VWS V14.01,2013-02-04 05:33:00,
2013-02-04 00:38:00,32.8,21.6,29.92,NW,307,5.0,20.0,63,0.00,,BKN070,0.00,VWS V14.01,2013-02-04 05:38:00,
2013-02-04 00:43:00,32.6,21.8,29.92,WNW,302,11.0,15.0,64,0.00,,SCT041,0.00,VWS V14.01,2013-02-04 05:43:00,
2013-02-04 00:48:00,32.5,22.1,29.92,West,273,14.0,15.0,65,0.00,,SCT041,0.00,VWS V14.01,2013-02-04 05:48:00,
2013-02-04 00:53:00,32.4,22.0,29.92,WNW,288,7.0,16.0,65,0.00,,SCT041,0.00,VWS V14.01,2013-02-04 05:53:00,
2013-02-04 00:58:00,32.3,21.5,29.92,WNW,287,14.0,19.0,64,0.00,,SCT041,0.00,VWS V14.01,2013-02-04 05:58:00,
2013-02-04 01:03:00,32.2,21.0,29.92,WNW,296,16.0,20.0,63,0.00,,SCT041,0.00,VWS V14.01,2013-02-04 06:03:00,
2013-02-04 01:08:00,32.0,20.9,29.93,West,279,8.0,17.0,63,0.00,,SCT041,0.00,VWS V14.01,2013-02-04 06:08:00,
2013-02-04 01:13:00,31.9,21.1,29.93,NW,312,12.0,20.0,64,0.00,,SCT041,0.00,VWS V14.01,2013-02-04 06:13:00,
2013-02-04 01:18:00,31.7,20.6,29.93,NNW,334,11.0,21.0,63,0.00,,SCT041,0.00,VWS V14.01,2013-02-04 06:18:00,
2013-02-04 01:23:00,31.5,20.7,29.93,NNW,331,14.0,16.0,64,0.00,,SCT041,0.00,VWS V14.01,2013-02-04 06:23:00,
2013-02-04 01:28:00,31.4,21.0,29.93,NW,312,9.0,14.0,65,0.00,,SCT041,0.00,VWS V14.01,2013-02-04 06:28:00,
2013-02-04 01:33:00,31.2,20.5,29.93,NW,324,10.0,22.0,64,0.00,,SCT041,0.00,VWS V14.01,2013-02-04 06:33:00,
2013-02-04 01:38:00,31.1,20.4,29.93,WNW,302,5.0,17.0,64,0.00,,SCT041,0.00,VWS V14.01,2013-02-04 06:38:00,
2013-02-04 01:43:00,30.9,20.5,29.93,WNW,296,14.0,20.0,65,0.00,,OVC037,0.00,VWS V14.01,2013-02-04 06:43:00,
2013-02-04 01:48:00,30.8,20.1,29.94,NW,323,9.0,18.0,64,0.00,,OVC037,0.00,VWS V14.01,2013-02-04 06:48:00,
2013-02-04 01:53:00,30.7,19.6,29.94,NW,317,12.0,16.0,63,0.00,,BKN039,0.00,VWS V14.01,2013-02-04 06:53:00,
2013-02-04 01:58:00,30.6,19.9,29.95,WNW,290,9.0,15.0,64,0.00,,BKN039,0.00,VWS V14.01,2013-02-04 06:58:00,
2013-02-04 02:03:00,30.6,20.2,29.95,NW,317,18.0,18.0,65,0.00,,BKN039,0.00,VWS V14.01,2013-02-04 07:03:00,
2013-02-04 02:08:00,30.5,19.8,29.95,NNW,336,14.0,17.0,64,0.00,,BKN039,0.00,VWS V14.01,2013-02-04 07:08:00,
2013-02-04 02:13:00,30.5,20.1,29.95,NNW,343,5.0,12.0,65,0.00,,BKN039,0.00,VWS V14.01,2013-02-04 07:13:00,
2013-02-04 02:19:00,30.4,19.7,29.95,WNW,301,11.0,13.0,64,0.00,,BKN039,0.00,VWS V14.01,2013-02-04 07:19:00,
2013-02-04 02:24:00,30.4,19.3,29.96,West,266,13.0,16.0,63,0.00,,BKN039,0.00,VWS V14.01,2013-02-04 07:24:00,
2013-02-04 02:29:00,30.4,19.3,29.96,NW,307,15.0,16.0,63,0.00,,BKN039,0.00,VWS V14.01,2013-02-04 07:29:00,
2013-02-04 02:34:00,30.3,19.2,29.96,WNW,303,13.0,19.0,63,0.00,,BKN039,0.00,VWS V14.01,2013-02-04 07:34:00,
2013-02-04 02:39:00,30.3,19.2,29.96,NW,307,8.0,19.0,63,0.00,,BKN039,0.00,VWS V14.01,2013-02-04 07:39:00,
2013-02-04 02:44:00,30.3,19.6,29.96,WNW,283,4.0,10.0,64,0.00,,BKN038,0.00,VWS V14.01,2013-02-04 07:44:00,
2013-02-04 02:49:00,30.2,19.5,29.96,NW,324,4.0,12.0,64,0.00,,BKN038,0.00,VWS V14.01,2013-02-04 07:49:00,
2013-02-04 02:54:00,30.1,19.4,29.96,NW,312,7.0,11.0,64,0.00,,SCT047,0.00,VWS V14.01,2013-02-04 07:54:00,
2013-02-04 02:59:00,30.2,19.5,29.96,NW,321,11.0,15.0,64,0.00,,SCT047,0.00,VWS V14.01,2013-02-04 07:59:00,
2013-02-04 03:04:00,30.2,18.4,29.96,West,273,12.0,16.0,61,0.00,,SCT046,0.00,VWS V14.01,2013-02-04 08:04:00,
2013-02-04 03:09:00,30.2,18.8,29.97,NW,324,10.0,19.0,62,0.00,,SCT046,0.00,VWS V14.01,2013-02-04 08:09:00,
2013-02-04 03:14:00,30.2,17.6,29.97,WNW,285,10.0,19.0,59,0.00,,SCT046,0.00,VWS V14.01,2013-02-04 08:14:00,
2013-02-04 03:19:00,30.1,17.1,29.97,WNW,290,20.0,25.0,58,0.00,,SCT046,0.00,VWS V14.01,2013-02-04 08:19:00,
2013-02-04 03:24:00,30.1,16.3,29.97,NW,317,11.0,18.0,56,0.00,,SCT046,0.00,VWS V14.01,2013-02-04 08:24:00,
2013-02-04 03:29:00,30.0,16.2,29.97,NNW,327,10.0,22.0,56,0.00,,SCT046,0.00,VWS V14.01,2013-02-04 08:29:00,
2013-02-04 03:34:00,29.9,16.5,29.97,NW,325,11.0,17.0,57,0.00,,SCT046,0.00,VWS V14.01,2013-02-04 08:34:00,
2013-02-04 03:39:00,29.8,16.8,29.97,West,264,7.0,14.0,58,0.00,,SCT046,0.00,VWS V14.01,2013-02-04 08:39:00,
2013-02-04 03:44:00,29.8,16.4,29.97,NNW,336,11.0,15.0,57,0.00,,CLR,0.00,VWS V14.01,2013-02-04 08:44:00,
2013-02-04 03:49:00,29.6,15.8,29.98,NW,307,5.0,12.0,56,0.00,,CLR,0.00,VWS V14.01,2013-02-04 08:49:00,
2013-02-04 03:54:00,29.6,16.2,29.97,NNW,337,15.0,16.0,57,0.00,,CLR,0.00,VWS V14.01,2013-02-04 08:54:00,
2013-02-04 03:59:00,29.5,17.0,29.98,NW,324,11.0,14.0,59,0.00,,CLR,0.00,VWS V14.01,2013-02-04 08:59:00,
2013-02-04 04:04:00,29.5,17.7,29.98,NNW,329,12.0,20.0,61,0.00,,CLR,0.00,VWS V14.01,2013-02-04 09:04:00,
2013-02-04 04:09:00,29.4,17.6,29.98,NNW,336,13.0,26.0,61,0.00,,CLR,0.00,VWS V14.01,2013-02-04 09:09:00,
2013-02-04 04:14:00,29.1,16.6,29.98,NNW,334,21.0,22.0,59,0.00,,CLR,0.00,VWS V14.01,2013-02-04 09:14:00,
2013-02-04 04:19:00,28.8,16.3,29.98,NW,326,12.0,24.0,59,0.00,,CLR,0.00,VWS V14.01,2013-02-04 09:19:00,
2013-02-04 04:24:00,28.6,15.7,29.98,NNW,337,17.0,22.0,58,0.00,,CLR,0.00,VWS V14.01,2013-02-04 09:24:00,
2013-02-04 04:29:00,28.4,15.1,29.99,NW,317,9.0,15.0,57,0.00,,CLR,0.00,VWS V14.01,2013-02-04 09:29:00,
2013-02-04 04:34:00,28.3,15.8,29.99,NNW,347,21.0,21.0,59,0.00,,CLR,0.00,VWS V14.01,2013-02-04 09:34:00,
2013-02-04 04:39:00,28.3,16.6,29.99,NW,307,11.0,19.0,61,0.00,,CLR,0.00,VWS V14.01,2013-02-04 09:39:00,
2013-02-04 04:44:00,28.3,17.0,30.00,NW,321,12.0,20.0,62,0.00,,CLR,0.00,VWS V14.01,2013-02-04 09:44:00,
2013-02-04 04:49:00,28.1,16.4,30.00,WNW,300,12.0,17.0,61,0.00,,CLR,0.00,VWS V14.01,2013-02-04 09:49:00,
2013-02-04 04:54:00,28.0,16.3,30.00,NNW,329,11.0,19.0,61,0.00,,CLR,0.00,VWS V14.01,2013-02-04 09:54:00,
2013-02-04 04:59:00,27.9,15.8,30.00,NNW,339,14.0,19.0,60,0.00,,CLR,0.00,VWS V14.01,2013-02-04 09:59:00,
2013-02-04 05:04:00,27.9,16.2,30.01,NW,312,17.0,18.0,61,0.00,,CLR,0.00,VWS V14.01,2013-02-04 10:04:00,
2013-02-04 05:09:00,28.0,17.4,30.00,NNW,338,22.0,23.0,64,0.00,,CLR,0.00,VWS V14.01,2013-02-04 10:09:00,
2013-02-04 05:14:00,27.9,17.0,30.01,North,349,13.0,17.0,63,0.00,,CLR,0.00,VWS V14.01,2013-02-04 10:14:00,
2013-02-04 05:19:00,27.8,17.2,30.01,NNW,346,16.0,17.0,64,0.00,,CLR,0.00,VWS V14.01,2013-02-04 10:19:00,
2013-02-04 05:24:00,27.7,16.4,30.02,NNW,346,15.0,21.0,62,0.00,,CLR,0.00,VWS V14.01,2013-02-04 10:24:00,
2013-02-04 05:29:00,27.7,17.1,30.02,NNW,329,11.0,21.0,64,0.00,,CLR,0.00,VWS V14.01,2013-02-04 10:29:00,
2013-02-04 05:34:00,27.4,15.7,30.01,North,355,13.0,17.0,61,0.00,,CLR,0.00,VWS V14.01,2013-02-04 10:34:00,
2013-02-04 05:40:00,27.3,16.0,30.01,NNW,331,13.0,13.0,62,0.00,,CLR,0.00,VWS V14.01,2013-02-04 10:40:00,
2013-02-04 05:44:00,27.3,16.8,30.02,NW,321,6.0,16.0,64,0.00,,SCT047,0.00,VWS V14.01,2013-02-04 10:44:00,
2013-02-04 05:50:00,27.1,15.4,30.02,NNW,335,7.0,11.0,61,0.00,,SCT047,0.00,VWS V14.01,2013-02-04 10:50:00,
2013-02-04 05:55:00,27.0,15.7,30.02,NW,307,9.0,14.0,62,0.00,,SCT047,0.00,VWS V14.01,2013-02-04 10:55:00,
2013-02-04 06:00:00,26.9,15.3,30.02,NW,321,11.0,13.0,61,0.00,,SCT047,0.00,VWS V14.01,2013-02-04 11:00:00,
2013-02-04 06:05:00,26.7,14.7,30.02,NW,317,6.0,16.0,60,0.00,,SCT050,0.00,VWS V14.01,2013-02-04 11:05:00,
2013-02-04 06:10:00,26.6,15.0,30.03,NNW,330,5.0,11.0,61,0.00,,SCT050,0.00,VWS V14.01,2013-02-04 11:10:00,
2013-02-04 06:15:00,26.6,15.0,30.03,WNW,296,9.0,9.0,61,0.00,,SCT050,0.00,VWS V14.01,2013-02-04 11:15:00,
2013-02-04 06:20:00,26.5,14.9,30.04,WNW,290,6.0,11.0,61,0.00,,SCT050,0.00,VWS V14.01,2013-02-04 11:20:00,
2013-02-04 06:25:00,26.5,15.3,30.04,WNW,300,13.0,13.0,62,0.00,,SCT050,0.00,VWS V14.01,2013-02-04 11:25:00,
2013-02-04 06:30:00,26.5,14.5,30.04,NW,307,9.0,13.0,60,0.00,,SCT050,0.00,VWS V14.01,2013-02-04 11:30:00,
2013-02-04 06:35:00,26.5,15.3,30.05,NW,317,4.0,7.0,62,0.00,,SCT050,0.00,VWS V14.01,2013-02-04 11:35:00,
2013-02-04 06:40:00,26.5,14.9,30.04,NW,317,5.0,15.0,61,0.00,,CLR,0.00,VWS V14.01,2013-02-04 11:40:00,
2013-02-04 06:45:00,26.5,14.9,30.05,WNW,298,4.0,10.0,61,0.00,,CLR,0.00,VWS V14.01,2013-02-04 11:45:00,
2013-02-04 06:50:00,26.4,14.8,30.05,NW,323,4.0,12.0,61,0.00,,CLR,0.00,VWS V14.01,2013-02-04 11:50:00,
2013-02-04 06:55:00,26.3,14.7,30.05,West,277,11.0,11.0,61,0.00,,CLR,0.00,VWS V14.01,2013-02-04 11:55:00,
2013-02-04 07:00:00,26.4,14.8,30.06,NNW,343,4.0,11.0,61,0.00,,CLR,0.00,VWS V14.01,2013-02-04 12:00:00,
2013-02-04 07:05:00,26.3,14.7,30.06,NW,321,7.0,10.0,61,0.00,,CLR,0.00,VWS V14.01,2013-02-04 12:05:00,
2013-02-04 07:10:00,26.3,14.7,30.06,NW,325,4.0,9.0,61,0.00,,CLR,0.00,VWS V14.01,2013-02-04 12:10:00,
2013-02-04 07:15:00,26.3,15.1,30.06,NW,307,4.0,9.0,62,0.00,,CLR,0.00,VWS V14.01,2013-02-04 12:15:00,
2013-02-04 07:20:00,26.4,15.2,30.06,NW,317,3.0,6.0,62,0.00,,CLR,0.00,VWS V14.01,2013-02-04 12:20:00,
2013-02-04 07:25:00,26.5,15.3,30.07,WNW,295,3.0,6.0,62,0.00,,CLR,0.00,VWS V14.01,2013-02-04 12:25:00,
2013-02-04 07:30:00,26.6,15.4,30.07,WNW,300,5.0,10.0,62,0.00,,CLR,0.00,VWS V14.01,2013-02-04 12:30:00,
2013-02-04 07:35:00,26.6,15.4,30.07,NW,326,5.0,11.0,62,0.00,,CLR,0.00,VWS V14.01,2013-02-04 12:35:00,
2013-02-04 07:40:00,26.7,15.4,30.08,NW,307,5.0,5.0,62,0.00,,CLR,0.00,VWS V14.01,2013-02-04 12:40:00,
2013-02-04 07:45:00,26.8,15.2,30.08,NNW,337,5.0,11.0,61,0.00,,CLR,0.00,VWS V14.01,2013-02-04 12:45:00,
2013-02-04 07:50:00,26.9,15.3,30.08,WNW,296,5.0,11.0,61,0.00,,SCT150,0.00,VWS V14.01,2013-02-04 12:50:00,
2013-02-04 07:55:00,27.0,15.4,30.08,WNW,292,5.0,8.0,61,0.00,,SCT150,0.00,VWS V14.01,2013-02-04 12:55:00,
2013-02-04 08:00:00,27.1,15.1,30.09,WNW,283,3.0,6.0,60,0.00,,SCT150,0.00,VWS V14.01,2013-02-04 13:00:00,
2013-02-04 08:05:00,27.2,15.2,30.09,NNW,330,4.0,10.0,60,0.00,,SCT150,0.00,VWS V14.01,2013-02-04 13:05:00,
2013-02-04 08:10:00,27.3,15.6,30.09,WNW,285,1.0,7.0,61,0.00,,SCT150,0.00,VWS V14.01,2013-02-04 13:10:00,
2013-02-04 08:15:00,27.4,15.4,30.09,NNW,331,7.0,11.0,60,0.00,,SCT150,0.00,VWS V14.01,2013-02-04 13:15:00,
2013-02-04 08:20:00,27.5,15.4,30.09,NW,312,4.0,6.0,60,0.00,,SCT150,0.00,VWS V14.01,2013-02-04 13:20:00,
2013-02-04 08:25:00,27.7,15.6,30.09,West,280,10.0,12.0,60,0.00,,SCT150,0.00,VWS V14.01,2013-02-04 13:25:00,
2013-02-04 08:30:00,27.7,15.3,30.09,NW,307,2.0,11.0,59,0.00,,SCT150,0.00,VWS V14.01,2013-02-04 13:30:00,
2013-02-04 08:35:00,27.8,16.1,30.09,NNW,341,10.0,11.0,61,0.00,,FEW150,0.00,VWS V14.01,2013-02-04 13:35:00,
2013-02-04 08:40:00,27.8,15.7,30.09,NNW,345,7.0,9.0,60,0.00,,FEW150,0.00,VWS V14.01,2013-02-04 13:40:00,
2013-02-04 08:45:00,27.8,15.7,30.09,North,351,6.0,9.0,60,0.00,,FEW150,0.00,VWS V14.01,2013-02-04 13:45:00,
2013-02-04 08:50:00,27.9,15.8,30.09,NNW,331,4.0,7.0,60,0.00,,FEW150,0.00,VWS V14.01,2013-02-04 13:50:00,
2013-02-04 08:56:00,28.0,16.7,30.09,NNW,338,10.0,10.0,62,0.00,,FEW150,0.00,VWS V14.01,2013-02-04 13:56:00,
2013-02-04 09:01:00,28.1,16.4,30.09,NNW,344,5.0,7.0,61,0.00,,FEW150,0.00,VWS V14.01,2013-02-04 14:01:00,
2013-02-04 09:06:00,28.3,17.0,30.09,NNW,338,5.0,7.0,62,0.00,,FEW150,0.00,VWS V14.01,2013-02-04 14:06:00,
2013-02-04 09:11:00,28.3,16.6,30.08,NNW,336,7.0,10.0,61,0.00,,FEW150,0.00,VWS V14.01,2013-02-04 14:11:00,
2013-02-04 09:16:00,28.2,16.9,30.09,NNW,342,7.0,10.0,62,0.00,,FEW150,0.00,VWS V14.01,2013-02-04 14:16:00,
2013-02-04 09:21:00,28.3,17.0,30.09,North,353,1.0,3.0,62,0.00,,FEW150,0.00,VWS V14.01,2013-02-04 14:21:00,
2013-02-04 09:26:00,28.4,16.7,30.09,NNW,337,5.0,6.0,61,0.00,,FEW150,0.00,VWS V14.01,2013-02-04 14:26:00,
2013-02-04 09:31:00,28.4,16.7,30.08,North,349,4.0,7.0,61,0.00,,FEW150,0.00,VWS V14.01,2013-02-04 14:31:00,
2013-02-04 09:36:00,28.4,17.1,30.08,NNW,346,5.0,10.0,62,0.00,,FEW150,0.00,VWS V14.01,2013-02-04 14:36:00,
2013-02-04 09:41:00,28.5,17.1,30.08,North,9,6.0,10.0,62,0.00,,FEW150,0.00,VWS V14.01,2013-02-04 14:41:00,
2013-02-04 09:46:00,28.5,16.8,30.09,North,10,5.0,7.0,61,0.00,,FEW150,0.00,VWS V14.01,2013-02-04 14:46:00,
2013-02-04 09:51:00,28.5,16.4,30.09,North,8,4.0,6.0,60,0.00,,FEW150,0.00,VWS V14.01,2013-02-04 14:51:00,
2013-02-04 09:56:00,28.7,17.0,30.09,NNW,338,5.0,6.0,61,0.00,,FEW150,0.00,VWS V14.01,2013-02-04 14:56:00,
2013-02-04 10:01:00,28.9,17.5,30.09,NNW,328,5.0,7.0,62,0.00,,FEW150,0.00,VWS V14.01,2013-02-04 15:01:00,
2013-02-04 10:06:00,28.9,17.2,30.08,West,275,4.0,10.0,61,0.00,,FEW150,0.00,VWS V14.01,2013-02-04 15:06:00,
2013-02-04 10:11:00,29.1,17.7,30.08,NW,322,5.0,11.0,62,0.00,,FEW150,0.00,VWS V14.01,2013-02-04 15:11:00,
2013-02-04 10:16:00,29.0,16.5,30.08,NNW,331,6.0,9.0,59,0.00,,FEW150,0.00,VWS V14.01,2013-02-04 15:16:00,
2013-02-04 10:21:00,29.0,16.5,30.08,NNW,331,4.0,10.0,59,0.00,,FEW150,0.00,VWS V14.01,2013-02-04 15:21:00,
2013-02-04 10:26:00,29.1,16.2,30.08,WSW,254,2.0,5.0,58,0.00,,FEW150,0.00,VWS V14.01,2013-02-04 15:26:00,
2013-02-04 10:31:00,29.2,16.3,30.08,NW,317,5.0,6.0,58,0.00,,BKN150,0.00,VWS V14.01,2013-02-04 15:31:00,
2013-02-04 10:36:00,29.4,16.9,30.08,NNW,334,4.0,10.0,59,0.00,,BKN150,0.00,VWS V14.01,2013-02-04 15:36:00,
2013-02-04 10:41:00,29.4,16.9,30.08,West,261,4.0,6.0,59,0.00,,BKN150,0.00,VWS V14.01,2013-02-04 15:41:00,
2013-02-04 10:46:00,29.4,16.5,30.08,NNW,330,3.0,6.0,58,0.00,,BKN150,0.00,VWS V14.01,2013-02-04 15:46:00,
2013-02-04 10:51:00,29.6,17.0,30.08,NNW,342,4.0,6.0,59,0.00,,BKN150,0.00,VWS V14.01,2013-02-04 15:51:00,
2013-02-04 10:56:00,29.8,17.2,30.08,WNW,297,0.0,0.0,59,0.00,,BKN150,0.00,VWS V14.01,2013-02-04 15:56:00,
2013-02-04 11:01:00,30.0,16.6,30.08,WNW,289,0.0,4.0,57,0.00,,BKN150,0.00,VWS V14.01,2013-02-04 16:01:00,
2013-02-04 11:06:00,30.1,17.5,30.08,NNW,332,4.0,6.0,59,0.00,,BKN150,0.00,VWS V14.01,2013-02-04 16:06:00,
2013-02-04 11:11:00,30.0,17.4,30.07,NW,312,4.0,9.0,59,0.00,,BKN150,0.00,VWS V14.01,2013-02-04 16:11:00,
2013-02-04 11:17:00,29.9,17.3,30.07,WSW,247,2.0,7.0,59,0.00,,BKN150,0.00,VWS V14.01,2013-02-04 16:17:00,
2013-02-04 11:22:00,30.1,17.9,30.07,NW,307,4.0,4.0,60,0.00,,BKN150,0.00,VWS V14.01,2013-02-04 16:22:00,
2013-02-04 11:27:00,30.3,17.7,30.07,NW,317,5.0,5.0,59,0.00,,BKN150,0.00,VWS V14.01,2013-02-04 16:27:00,
2013-02-04 11:32:00,30.6,18.4,30.07,NW,312,2.0,3.0,60,0.00,,OVC150,0.00,VWS V14.01,2013-02-04 16:32:00,
2013-02-04 11:37:00,31.0,18.8,30.06,West,261,4.0,5.0,60,0.00,,OVC150,0.00,VWS V14.01,2013-02-04 16:37:00,
2013-02-04 11:42:00,31.0,18.4,30.06,SW,236,4.0,9.0,59,0.00,,OVC150,0.00,VWS V14.01,2013-02-04 16:42:00,
2013-02-04 11:47:00,30.7,18.5,30.06,SW,214,3.0,4.0,60,0.00,,OVC150,0.00,VWS V14.01,2013-02-04 16:47:00,
2013-02-04 11:52:00,30.7,18.5,30.06,SW,223,4.0,5.0,60,0.00,,OVC150,0.00,VWS V14.01,2013-02-04 16:52:00,
2013-02-04 11:57:00,30.7,18.1,30.06,SW,236,0.0,4.0,59,0.00,,OVC150,0.00,VWS V14.01,2013-02-04 16:57:00,
2013-02-04 12:02:00,30.6,18.4,30.05,WSW,240,4.0,6.0,60,0.00,,OVC150,0.00,VWS V14.01,2013-02-04 17:02:00,
2013-02-04 12:07:00,30.6,18.0,30.05,SSW,213,7.0,7.0,59,0.00,,OVC150,0.00,VWS V14.01,2013-02-04 17:07:00,
2013-02-04 12:12:00,30.8,19.0,30.05,WSW,248,2.0,8.0,61,0.00,,OVC150,0.00,VWS V14.01,2013-02-04 17:12:00,
2013-02-04 12:17:00,31.1,18.9,30.04,WSW,251,3.0,7.0,60,0.00,,OVC150,0.00,VWS V14.01,2013-02-04 17:17:00,
2013-02-04 12:22:00,31.1,18.5,30.04,South,181,3.0,4.0,59,0.00,,OVC150,0.00,VWS V14.01,2013-02-04 17:22:00,
2013-02-04 12:27:00,31.3,18.6,30.04,SW,217,2.0,6.0,59,0.00,,OVC150,0.00,VWS V14.01,2013-02-04 17:27:00,
2013-02-04 12:32:00,31.5,18.8,30.04,SW,219,1.0,6.0,59,0.00,,OVC150,0.00,VWS V14.01,2013-02-04 17:32:00,
2013-02-04 12:37:00,31.5,19.2,30.03,WSW,240,4.0,7.0,60,0.00,,OVC150,0.00,VWS V14.01,2013-02-04 17:37:00,
2013-02-04 12:42:00,31.6,19.7,30.03,SSE,163,3.0,5.0,61,0.00,,OVC150,0.00,VWS V14.01,2013-02-04 17:42:00,
2013-02-04 12:47:00,31.7,18.6,30.03,SSE,151,0.0,5.0,58,0.00,,OVC150,0.00,VWS V14.01,2013-02-04 17:47:00,
2013-02-04 12:52:00,31.7,19.0,30.02,SSE,159,0.0,5.0,59,0.00,,OVC150,0.00,VWS V14.01,2013-02-04 17:52:00,
2013-02-04 12:57:00,32.0,20.5,30.02,SSE,160,7.0,8.0,62,0.00,,OVC150,0.00,VWS V14.01,2013-02-04 17:57:00,
2013-02-04 13:02:00,32.1,20.2,30.01,SSE,157,6.0,9.0,61,0.00,,OVC150,0.00,VWS V14.01,2013-02-04 18:02:00,
2013-02-04 13:07:00,31.8,19.9,30.00,SSE,151,7.0,7.0,61,0.00,,OVC150,0.00,VWS V14.01,2013-02-04 18:07:00,
2013-02-04 13:12:00,31.8,20.7,30.00,SSE,152,5.0,7.0,63,0.00,,OVC150,0.00,VWS V14.01,2013-02-04 18:12:00,
2013-02-04 13:17:00,32.1,20.6,30.00,SW,222,5.0,8.0,62,0.00,,OVC150,0.00,VWS V14.01,2013-02-04 18:17:00,
2013-02-04 13:22:00,32.4,19.7,30.01,SW,223,5.0,10.0,59,0.00,,OVC150,0.00,VWS V14.01,2013-02-04 18:22:00,
2013-02-04 13:27:00,32.7,20.0,30.00,SW,220,7.0,11.0,59,0.00,,OVC150,0.00,VWS V14.01,2013-02-04 18:27:00,
2013-02-04 13:32:00,32.6,20.3,30.00,SSW,211,6.0,9.0,60,0.00,,OVC150,0.00,VWS V14.01,2013-02-04 18:32:00,
2013-02-04 13:37:00,32.6,19.9,30.00,SW,219,9.0,9.0,59,0.00,,OVC150,0.00,VWS V14.01,2013-02-04 18:37:00,
2013-02-04 13:42:00,32.7,20.4,30.00,SW,225,5.0,8.0,60,0.00,,OVC150,0.00,VWS V14.01,2013-02-04 18:42:00,
2013-02-04 13:47:00,32.7,20.0,30.00,SE,140,3.0,10.0,59,0.00,,OVC150,0.00,VWS V14.01,2013-02-04 18:47:00,
2013-02-04 13:52:00,32.7,20.0,30.00,SSE,167,7.0,7.0,59,0.00,,OVC150,0.00,VWS V14.01,2013-02-04 18:52:00,
2013-02-04 13:58:00,32.6,20.3,29.99,SSW,192,4.0,6.0,60,0.00,,OVC150,0.00,VWS V14.01,2013-02-04 18:58:00,
2013-02-04 14:03:00,32.7,20.4,29.99,South,179,7.0,7.0,60,0.00,,OVC150,0.00,VWS V14.01,2013-02-04 19:03:00,
2013-02-04 14:08:00,32.8,20.1,29.99,SW,222,5.0,12.0,59,0.00,,OVC150,0.00,VWS V14.01,2013-02-04 19:08:00,
2013-02-04 14:13:00,32.9,19.8,29.99,SW,215,7.0,13.0,58,0.00,,OVC150,0.00,VWS V14.01,2013-02-04 19:13:00,
2013-02-04 14:18:00,33.1,20.4,29.99,SSW,209,4.0,7.0,59,0.00,,OVC150,0.00,VWS V14.01,2013-02-04 19:18:00,
2013-02-04 14:23:00,33.2,20.0,29.99,SW,234,10.0,11.0,58,0.00,,OVC150,0.00,VWS V14.01,2013-02-04 19:23:00,
2013-02-04 14:28:00,33.3,20.9,29.98,SW,218,7.0,10.0,60,0.00,,OVC150,0.00,VWS V14.01,2013-02-04 19:28:00,
2013-02-04 14:33:00,33.5,20.7,29.98,WSW,248,10.0,11.0,59,0.00,,OVC150,0.00,VWS V14.01,2013-02-04 19:33:00,
2013-02-04 14:38:00,33.7,20.5,29.98,SSW,201,5.0,13.0,58,0.00,,OVC150,0.00,VWS V14.01,2013-02-04 19:38:00,
2013-02-04 14:43:00,33.7,20.1,29.98,SW,232,7.0,13.0,57,0.00,,OVC150,0.00,VWS V14.01,2013-02-04 19:43:00,
2013-02-04 14:48:00,33.7,20.5,29.99,SW,220,5.0,10.0,58,0.00,,OVC150,0.00,VWS V14.01,2013-02-04 19:48:00,
2013-02-04 14:53:00,33.9,21.1,29.98,South,181,6.0,11.0,59,0.00,,OVC150,0.00,VWS V14.01,2013-02-04 19:53:00,
2013-02-04 14:58:00,33.9,20.7,29.99,SW,227,10.0,12.0,58,0.00,,OVC150,0.00,VWS V14.01,2013-02-04 19:58:00,
2013-02-04 15:03:00,33.8,20.6,29.99,SW,229,9.0,12.0,58,0.00,,OVC150,0.00,VWS V14.01,2013-02-04 20:03:00,
2013-02-04 15:08:00,33.7,20.1,29.99,SW,225,9.0,13.0,57,0.00,,OVC150,0.00,VWS V14.01,2013-02-04 20:08:00,
2013-02-04 15:13:00,33.6,21.2,29.99,SW,233,6.0,11.0,60,0.00,,OVC150,0.00,VWS V14.01,2013-02-04 20:13:00,
2013-02-04 15:18:00,33.7,20.9,29.99,SSW,196,9.0,12.0,59,0.00,,OVC150,0.00,VWS V14.01,2013-02-04 20:18:00,
2013-02-04 15:23:00,33.8,21.0,29.99,SW,222,7.0,12.0,59,0.00,,OVC150,0.00,VWS V14.01,2013-02-04 20:23:00,
2013-02-04 15:28:00,33.8,21.0,29.98,SW,228,9.0,11.0,59,0.00,,OVC150,0.00,VWS V14.01,2013-02-04 20:28:00,
2013-02-04 15:33:00,33.9,20.7,29.99,SW,222,3.0,12.0,58,0.00,,OVC150,0.00,VWS V14.01,2013-02-04 20:33:00,
2013-02-04 15:38:00,33.9,20.7,29.99,SSE,159,5.0,12.0,58,0.00,,OVC150,0.00,VWS V14.01,2013-02-04 20:38:00,
2013-02-04 15:43:00,34.3,21.5,29.99,South,177,4.0,6.0,59,0.00,,OVC150,0.00,VWS V14.01,2013-02-04 20:43:00,
2013-02-04 15:48:00,34.6,21.8,29.99,SW,221,4.0,5.0,59,0.00,,OVC150,0.00,VWS V14.01,2013-02-04 20:48:00,
2013-02-04 15:53:00,34.5,21.7,29.99,SW,219,4.0,11.0,59,0.00,,OVC150,0.00,VWS V14.01,2013-02-04 20:53:00,
2013-02-04 15:58:00,34.3,21.1,29.98,SW,224,6.0,10.0,58,0.00,,OVC150,0.00,VWS V14.01,2013-02-04 20:58:00,
2013-02-04 16:03:00,34.2,21.4,29.98,SSW,206,5.0,6.0,59,0.00,,OVC150,0.00,VWS V14.01,2013-02-04 21:03:00,
2013-02-04 16:08:00,34.1,21.7,29.98,SSW,204,2.0,5.0,60,0.00,,OVC150,0.00,VWS V14.01,2013-02-04 21:08:00,
2013-02-04 16:13:00,34.0,22.0,29.98,SW,226,4.0,9.0,61,0.00,,OVC150,0.00,VWS V14.01,2013-02-04 21:13:00,
2013-02-04 16:18:00,33.9,21.9,29.97,SW,218,9.0,9.0,61,0.00,,OVC150,0.00,VWS V14.01,2013-02-04 21:18:00,
2013-02-04 16:23:00,34.0,22.4,29.98,SSW,206,1.0,6.0,62,0.00,,OVC150,0.00,VWS V14.01,2013-02-04 21:23:00,
2013-02-04 16:28:00,34.2,22.5,29.97,SSW,211,5.0,5.0,62,0.00,,OVC150,0.00,VWS V14.01,2013-02-04 21:28:00,
2013-02-04 16:33:00,34.3,22.3,29.97,SSW,213,3.0,7.0,61,0.00,,BKN200,0.00,VWS V14.01,2013-02-04 21:33:00,
2013-02-04 16:38:00,34.4,22.4,29.97,SW,223,3.0,7.0,61,0.00,,BKN200,0.00,VWS V14.01,2013-02-04 21:38:00,
2013-02-04 16:43:00,34.4,22.4,29.97,SW,215,2.0,7.0,61,0.00,,BKN200,0.00,VWS V14.01,2013-02-04 21:43:00,
2013-02-04 16:48:00,34.4,22.4,29.97,South,191,1.0,7.0,61,0.00,,BKN200,0.00,VWS V14.01,2013-02-04 21:48:00,
2013-02-04 16:53:00,34.2,22.5,29.97,South,185,1.0,5.0,62,0.00,,BKN200,0.00,VWS V14.01,2013-02-04 21:53:00,
2013-02-04 16:58:00,34.0,22.0,29.97,SW,226,3.0,5.0,61,0.00,,BKN200,0.00,VWS V14.01,2013-02-04 21:58:00,
2013-02-04 17:03:00,34.0,22.0,29.97,SW,218,4.0,6.0,61,0.00,,BKN200,0.00,VWS V14.01,2013-02-04 22:03:00,
2013-02-04 17:09:00,34.0,22.4,29.97,SSW,212,1.0,5.0,62,0.00,,BKN200,0.00,VWS V14.01,2013-02-04 22:09:00,
2013-02-04 17:14:00,33.8,22.5,29.97,SSW,212,3.0,3.0,63,0.00,,BKN200,0.00,VWS V14.01,2013-02-04 22:14:00,
2013-02-04 17:19:00,33.7,22.5,29.97,SSW,213,3.0,3.0,63,0.00,,BKN200,0.00,VWS V14.01,2013-02-04 22:19:00,
2013-02-04 17:24:00,33.7,22.8,29.96,SSW,213,0.0,3.0,64,0.00,,BKN200,0.00,VWS V14.01,2013-02-04 22:24:00,
2013-02-04 17:29:00,33.6,22.7,29.96,SSW,213,0.0,0.0,64,0.00,,BKN200,0.00,VWS V14.01,2013-02-04 22:29:00,
2013-02-04 17:34:00,33.5,23.0,29.96,SSW,213,0.0,0.0,65,0.00,,BKN200,0.00,VWS V14.01,2013-02-04 22:34:00,
2013-02-04 17:39:00,33.5,23.0,29.97,SSW,213,0.0,0.0,65,0.00,,BKN200,0.00,VWS V14.01,2013-02-04 22:39:00,
2013-02-04 17:44:00,33.5,23.0,29.96,SSW,213,0.0,0.0,65,0.00,,BKN250,0.00,VWS V14.01,2013-02-04 22:44:00,
2013-02-04 17:49:00,33.6,23.1,29.96,SSW,213,0.0,0.0,65,0.00,,BKN250,0.00,VWS V14.01,2013-02-04 22:49:00,
2013-02-04 17:54:00,33.7,23.2,29.96,SSW,213,0.0,0.0,65,0.00,,BKN250,0.00,VWS V14.01,2013-02-04 22:54:00,
2013-02-04 17:59:00,33.8,23.3,29.95,SSW,200,3.0,3.0,65,0.00,,BKN250,0.00,VWS V14.01,2013-02-04 22:59:00,
2013-02-04 18:04:00,34.1,23.6,29.95,SSW,199,0.0,0.0,65,0.00,,BKN250,0.00,VWS V14.01,2013-02-04 23:04:00,
2013-02-04 18:09:00,34.4,23.9,29.95,SSW,195,0.0,0.0,65,0.00,,BKN250,0.00,VWS V14.01,2013-02-04 23:09:00,
2013-02-04 18:14:00,34.6,23.3,29.95,South,182,0.0,3.0,63,0.00,,BKN250,0.00,VWS V14.01,2013-02-04 23:14:00,
2013-02-04 18:19:00,34.8,23.9,29.96,South,183,0.0,0.0,64,0.00,,BKN250,0.00,VWS V14.01,2013-02-04 23:19:00,
2013-02-04 18:24:00,34.8,26.7,29.96,SSE,151,7.0,12.0,72,0.00,,BKN250,0.00,VWS V14.01,2013-02-04 23:24:00,
2013-02-04 18:29:00,34.4,27.0,29.96,SSE,150,6.0,10.0,74,0.00,,BKN250,0.00,VWS V14.01,2013-02-04 23:29:00,
2013-02-04 18:34:00,34.2,27.1,29.96,SSE,151,5.0,9.0,75,0.00,,BKN250,0.00,VWS V14.01,2013-02-04 23:34:00,
2013-02-04 18:39:00,34.1,27.0,29.96,SE,142,7.0,9.0,75,0.00,,BKN250,0.00,VWS V14.01,2013-02-04 23:39:00,
2013-02-04 18:44:00,34.0,26.9,29.96,SSE,154,8.0,9.0,75,0.00,,BKN150,0.00,VWS V14.01,2013-02-04 23:44:00,
2013-02-04 18:49:00,33.9,27.1,29.96,SE,142,6.0,7.0,76,0.00,,BKN150,0.00,VWS V14.01,2013-02-04 23:49:00,
2013-02-04 18:54:00,33.9,26.8,29.96,SSE,148,10.0,10.0,75,0.00,,BKN150,0.00,VWS V14.01,2013-02-04 23:54:00,
2013-02-04 18:59:00,33.7,26.6,29.96,SE,142,5.0,10.0,75,0.00,,BKN150,0.00,VWS V14.01,2013-02-04 23:59:00,
2013-02-04 19:04:00,33.7,27.0,29.96,SE,140,7.0,7.0,76,0.00,,BKN150,0.00,VWS V14.01,2013-02-05 00:04:00,
2013-02-04 19:09:00,33.6,26.5,29.96,SSE,148,9.0,9.0,75,0.00,,BKN150,0.00,VWS V14.01,2013-02-05 00:09:00,
2013-02-04 19:14:00,33.6,26.9,29.95,SE,135,6.0,9.0,76,0.00,,BKN090,0.00,VWS V14.01,2013-02-05 00:14:00,
2013-02-04 19:19:00,33.6,26.9,29.96,SE,142,5.0,10.0,76,0.00,,BKN090,0.00,VWS V14.01,2013-02-05 00:19:00,
2013-02-04 19:24:00,33.6,27.2,29.95,SE,142,7.0,10.0,77,0.00,,BKN090,0.00,VWS V14.01,2013-02-05 00:24:00,
2013-02-04 19:29:00,33.5,27.1,29.95,SSE,147,9.0,11.0,77,0.00,,BKN090,0.00,VWS V14.01,2013-02-05 00:29:00,
2013-02-04 19:34:00,33.6,27.5,29.95,SSE,154,8.0,10.0,78,0.00,,BKN090,0.00,VWS V14.01,2013-02-05 00:34:00,
2013-02-04 19:39:00,33.7,27.6,29.96,SSE,159,9.0,10.0,78,0.00,,BKN090,0.00,VWS V14.01,2013-02-05 00:39:00,
2013-02-04 19:44:00,33.8,27.7,29.96,SSE,157,7.0,10.0,78,0.00,,BKN090,0.00,VWS V14.01,2013-02-05 00:44:00,
2013-02-04 19:49:00,33.8,27.7,29.96,SSE,148,4.0,10.0,78,0.00,,BKN090,0.00,VWS V14.01,2013-02-05 00:49:00,
2013-02-04 19:54:00,33.9,28.1,29.96,SSE,165,6.0,10.0,79,0.00,,BKN090,0.00,VWS V14.01,2013-02-05 00:54:00,
2013-02-04 19:59:00,34.1,28.3,29.96,SSE,159,10.0,10.0,79,0.00,,BKN090,0.00,VWS V14.01,2013-02-05 00:59:00,
2013-02-04 20:04:00,34.2,28.7,29.95,SSE,164,6.0,9.0,80,0.00,,BKN090,0.00,VWS V14.01,2013-02-05 01:04:00,
2013-02-04 20:09:00,34.3,29.1,29.95,SSE,157,9.0,10.0,81,0.00,,BKN090,0.00,VWS V14.01,2013-02-05 01:09:00,
2013-02-04 20:14:00,34.4,29.2,29.94,SSE,153,11.0,13.0,81,0.00,,BKN090,0.00,VWS V14.01,2013-02-05 01:14:00,
2013-02-04 20:19:00,34.4,29.2,29.94,SSE,157,10.0,11.0,81,0.00,,BKN090,0.00,VWS V14.01,2013-02-05 01:19:00,
2013-02-04 20:24:00,34.4,29.2,29.94,SSE,154,9.0,12.0,81,0.00,,BKN090,0.00,VWS V14.01,2013-02-05 01:24:00,
2013-02-04 20:29:00,34.4,29.2,29.94,SSE,161,12.0,14.0,81,0.00,,BKN090,0.00,VWS V14.01,2013-02-05 01:29:00,
2013-02-04 20:34:00,34.4,29.5,29.93,SSE,157,10.0,14.0,82,0.00,,BKN100,0.00,VWS V14.01,2013-02-05 01:34:00,
2013-02-04 20:39:00,34.6,30.0,29.93,SSE,159,10.0,11.0,83,0.00,,BKN100,0.00,VWS V14.01,2013-02-05 01:39:00,
2013-02-04 20:44:00,34.8,29.9,29.93,SSE,167,10.0,13.0,82,0.00,,BKN100,0.00,VWS V14.01,2013-02-05 01:44:00,
2013-02-04 20:50:00,34.8,29.9,29.93,South,171,9.0,13.0,82,0.00,,BKN100,0.00,VWS V14.01,2013-02-05 01:50:00,
2013-02-04 20:55:00,34.9,30.0,29.93,SSE,163,11.0,13.0,82,0.00,,BKN100,0.00,VWS V14.01,2013-02-05 01:55:00,
2013-02-04 21:00:00,35.0,30.4,29.93,South,171,7.0,11.0,83,0.00,,BKN100,0.00,VWS V14.01,2013-02-05 02:00:00,
2013-02-04 21:05:00,35.2,30.3,29.93,South,169,9.0,11.0,82,0.00,,BKN100,0.00,VWS V14.01,2013-02-05 02:05:00,
2013-02-04 21:10:00,35.2,30.3,29.93,South,175,7.0,11.0,82,0.00,,BKN100,0.00,VWS V14.01,2013-02-05 02:10:00,
2013-02-04 21:15:00,35.3,30.4,29.93,South,171,7.0,10.0,82,0.00,,BKN100,0.00,VWS V14.01,2013-02-05 02:15:00,
2013-02-04 21:20:00,35.5,30.9,29.93,South,175,3.0,9.0,83,0.00,,BKN100,0.00,VWS V14.01,2013-02-05 02:20:00,
2013-02-04 21:25:00,35.6,31.0,29.93,South,177,4.0,6.0,83,0.00,,BKN100,0.00,VWS V14.01,2013-02-05 02:25:00,
2013-02-04 21:30:00,35.9,31.2,29.93,SSE,168,4.0,10.0,83,0.00,,BKN100,0.00,VWS V14.01,2013-02-05 02:30:00,
2013-02-04 21:35:00,36.1,31.5,29.93,South,172,6.0,9.0,83,0.00,,BKN100,0.00,VWS V14.01,2013-02-05 02:35:00,
2013-02-04 21:40:00,36.3,31.6,29.92,South,169,7.0,7.0,83,0.00,,OVC090,0.00,VWS V14.01,2013-02-05 02:40:00,
2013-02-04 21:45:00,36.5,31.8,29.92,South,174,5.0,9.0,83,0.00,,OVC090,0.00,VWS V14.01,2013-02-05 02:45:00,
2013-02-04 21:50:00,36.6,31.6,29.92,South,171,5.0,11.0,82,0.00,,OVC090,0.00,VWS V14.01,2013-02-05 02:50:00,
2013-02-04 21:55:00,36.8,31.8,29.92,South,173,4.0,8.0,82,0.00,,OVC090,0.00,VWS V14.01,2013-02-05 02:55:00,
2013-02-04 22:00:00,37.0,32.0,29.92,SSE,161,4.0,5.0,82,0.00,,OVC090,0.00,VWS V14.01,2013-02-05 03:00:00,
2013-02-04 22:05:00,37.0,32.0,29.92,South,181,6.0,9.0,82,0.00,,OVC090,0.00,VWS V14.01,2013-02-05 03:05:00,
2013-02-04 22:10:00,37.1,32.1,29.92,SSE,167,7.0,9.0,82,0.00,,OVC090,0.00,VWS V14.01,2013-02-05 03:10:00,
2013-02-04 22:15:00,37.1,31.8,29.92,South,169,5.0,9.0,81,0.00,,OVC090,0.00,VWS V14.01,2013-02-05 03:15:00,
2013-02-04 22:20:00,37.1,32.1,29.92,SSE,164,3.0,6.0,82,0.00,,OVC090,0.00,VWS V14.01,2013-02-05 03:20:00,
2013-02-04 22:25:00,37.1,32.1,29.92,South,179,4.0,6.0,82,0.00,,OVC090,0.00,VWS V14.01,2013-02-05 03:25:00,
2013-02-04 22:30:00,37.0,32.0,29.92,South,190,5.0,8.0,82,0.00,,OVC090,0.00,VWS V14.01,2013-02-05 03:30:00,
2013-02-04 22:35:00,37.0,32.3,29.91,SSE,168,4.0,9.0,83,0.00,,OVC090,0.00,VWS V14.01,2013-02-05 03:35:00,
2013-02-04 22:40:00,37.0,32.3,29.91,South,190,4.0,7.0,83,0.00,,SCT060,0.00,VWS V14.01,2013-02-05 03:40:00,
2013-02-04 22:45:00,37.1,32.4,29.91,South,173,5.0,5.0,83,0.00,,SCT060,0.00,VWS V14.01,2013-02-05 03:45:00,
2013-02-04 22:50:00,37.1,32.4,29.91,South,171,5.0,7.0,83,0.00,,SCT060,0.00,VWS V14.01,2013-02-05 03:50:00,
2013-02-04 22:55:00,37.1,32.7,29.91,SSE,163,4.0,7.0,84,0.00,,SCT060,0.00,VWS V14.01,2013-02-05 03:55:00,
2013-02-04 23:00:00,37.1,33.0,29.91,South,174,5.0,7.0,85,0.00,,SCT060,0.00,VWS V14.01,2013-02-05 04:00:00,
2013-02-04 23:05:00,37.1,33.0,29.91,South,169,3.0,5.0,85,0.00,,SCT060,0.00,VWS V14.01,2013-02-05 04:05:00,
2013-02-04 23:10:00,37.2,33.1,29.91,SSE,165,2.0,7.0,85,0.00,,SCT060,0.00,VWS V14.01,2013-02-05 04:10:00,
2013-02-04 23:15:00,37.4,32.1,29.90,South,177,5.0,9.0,81,0.00,,SCT060,0.00,VWS V14.01,2013-02-05 04:15:00,
2013-02-04 23:20:00,37.7,32.4,29.90,South,173,9.0,9.0,81,0.00,,SCT060,0.00,VWS V14.01,2013-02-05 04:20:00,
2013-02-04 23:25:00,37.8,32.5,29.90,South,184,3.0,10.0,81,0.00,,SCT060,0.00,VWS V14.01,2013-02-05 04:25:00,
2013-02-04 23:30:00,37.8,32.5,29.89,SSE,164,6.0,9.0,81,0.00,,SCT060,0.00,VWS V14.01,2013-02-05 04:30:00,
2013-02-04 23:36:00,37.9,32.6,29.90,South,175,5.0,6.0,81,0.00,,SCT060,0.00,VWS V14.01,2013-02-05 04:36:00,
2013-02-04 23:41:00,37.9,32.6,29.89,South,181,6.0,10.0,81,0.00,,SCT080,0.00,VWS V14.01,2013-02-05 04:41:00,
2013-02-04 23:46:00,37.9,32.3,29.89,South,175,5.0,9.0,80,0.00,,SCT080,0.00,VWS V14.01,2013-02-05 04:46:00,
2013-02-04 23:51:00,38.0,32.4,29.89,South,181,6.0,10.0,80,0.00,,SCT080,0.00,VWS V14.01,2013-02-05 04:51:00,
2013-02-04 23:56:00,38.0,32.7,29.89,SSE,164,7.0,12.0,81,0.00,,SCT080,0.00,VWS V14.01,2013-02-05 04:56:00,